Regional Weather Roundup
Issued by NWS

Home | Current Version | Previous Version | Text Only | Print | Product List | Glossary Off
Versions: 1 2 3 4 5 6 7 8 9 10 11 12 13 14 15 16 17 18 19 20 21 22 23 24 25 26 27 28 29 30 31 32 33 34 35 36 37 38 39 40 41 42 43 44 45 46 47 48 49 50

000
ASUS45 KPSR 282000
RWRAZ

PRELIMINARY ARIZONA REGIONAL HOURLY WEATHER ROUNDUP
NATIONAL WEATHER SERVICE PHOENIX AZ
100 PM MST MON JUL 28 2014

NOTE: FAIR INDICATES FEW OR NO CLOUDS BELOW 12,000 FEET WITH NO
SIGNIFICANT WEATHER AND/OR OBSTRUCTIONS TO VISIBILITY.

AZZ001>003-036-282100-
NORTHWEST ARIZONA

CITY           SKY/WX    TMP DP  RH WIND       PRES   REMARKS
KINGMAN        PTSUNNY   78  60  53 E14       30.18S THUNDER
$$

AZZ004>008-015-016-018-282100-
NORTH CENTRAL ARIZONA

CITY           SKY/WX    TMP DP  RH WIND       PRES   REMARKS
GRAND CANYON   PTSUNNY   75  53  46 S7        30.41F
WILLIAMS       CLOUDY    59  54  82 NE10      30.49F
PRESCOTT       TSTM      78  52  40 SW10      30.31S
FLAGSTAFF      CLOUDY    68  52  56 S6        30.45F
PAYSON         PTSUNNY   86  48  26 VRB7      30.32F
PAGE           PTSUNNY   91  51  25 W8        30.20F
$$

AZZ009>014-017-282100-
NORTHEAST ARIZONA

CITY           SKY/WX    TMP DP  RH WIND       PRES   REMARKS
WINSLOW        NOT AVBL
SAINT JOHNS    CLOUDY    76  53  44 CALM      30.36F
WINDOW ROCK    CLOUDY    78  50  37 S9        30.41F
$$

AZZ023-282100-
GREATER PHOENIX AREA

CITY           SKY/WX    TMP DP  RH WIND       PRES   REMARKS
PHOENIX        MOSUNNY  101  56  22 E5        29.99F HX 100
BUCKEYE          N/A     99  59  26 NE7       30.01F
GLENDALE       PTSUNNY  102  57  22 MISG      30.01F HX 101
DEER VALLEY    MOSUNNY   96  55  25 SW6       30.02F
SCOTTSDALE     SUNNY     98  57  25 SW3       30.04F
MESA-FALCON    PTSUNNY  102  55  21 N9        30.02F HX 101
MESA-GATEWAY   MOSUNNY   97  59  28 W6        30.03F
CHANDLER       MOSUNNY   99  59  26 VRB5      30.02F
$$

AZZ027-028-282100-
SOUTHWEST MARICOPA COUNTY AND PINAL COUNTY

CITY           SKY/WX    TMP DP  RH WIND       PRES   REMARKS
CASA GRANDE    SUNNY     99  61  28 CALM      30.04F
GILA BEND      PTCLDY   102  59  24 NE7       30.00F HX 102
$$

AZZ503-504-507>509-282100-
SOUTHEAST ARIZONA

CITY           SKY/WX    TMP DP  RH WIND       PRES   REMARKS
TUCSON         CLOUDY    91  60  35 VRB5      30.15F
RYAN FIELD       N/A     93  59  31 E7        30.12F
NOGALES        CLOUDY    82  62  50 SE6       30.24F
SAFFORD        MOSUNNY   89  56  32 S5        30.16F
$$

AZZ020-021-025-026-031-282100-
SOUTHWEST ARIZONA

CITY           SKY/WX    TMP DP  RH WIND       PRES   REMARKS
YUMA           NOT AVBL
$$

CAZ031-033-041-043-047-048-061-282100-
SOUTHERN CALIFORNIA

CITY           SKY/WX    TMP DP  RH WIND       PRES   REMARKS
DOWNTOWN L.A.  PTSUNNY   86  52  30 S5        30.04F
L.A. AIRPORT   PTSUNNY   77  62  59 W12       30.06S
SAN DIEGO      MOSUNNY   83  55  38 NW8       30.05F
BURBANK        PTSUNNY   87  53  31 E6        30.06F
ONTARIO        PTSUNNY   87  44  22 W3        30.06F
RIVERSIDE      PTSUNNY   89  49  25 VRB5      30.06F
PALM SPRINGS   PTSUNNY  103  57  21 NE6       29.97F HX 102
EL CENTRO NAS  MOSUNNY  103  59  23 S7        29.91F HX 103
IMPERIAL       SUNNY    103  62  26 E10       29.91F HX 105
BLYTHE           N/A    N/A N/A N/A MISG      29.95F
$$

NVZ020-UTZ003-282100-
SOUTHERN NEVADA-UTAH

CITY           SKY/WX    TMP DP  RH WIND       PRES   REMARKS
LAS VEGAS      NOT AVBL
SALT LAKE CITY CLOUDY    90  47  22 MISG      30.14F
$$

NMZ009-TXZ055-282100-
NEW MEXICO-WEST TEXAS

CITY           SKY/WX    TMP DP  RH WIND       PRES   REMARKS
ALBUQUERQUE    PTSUNNY   82  53  36 VRB5      30.35F
EL PASO        MOSUNNY   90  58  33 N6G17     30.21F
$$


........................KEY........................
SKY/WX - SKY CONDITION/WEATHER
TMP    - TEMPERATURE IN FAHRENHEIT
DP     - DEW POINT IN FAHRENHEIT
RH     - RELATIVE HUMIDITY IN PERCENT
WIND   - DIRECTION AND SPEED IN MILES PER HOUR (MPH)
VRB    - VARIABLE WIND DIRECTION
PRES   - MEAN SEA LEVEL PRESSURE IN INCHES OF MERCURY
         F - FALLING PRESSURE   R - RISING PRESSURE
         S - STEADY PRESSURE
VSB    - VISIBILITY IN MILES
HX     - HEAT INDEX IN FAHRENHEIT
WCI    - WIND CHILL INDEX IN FAHRENHEIT
TC     - TEMPERATURE IN CELSIUS WHICH IS ALSO KNOWN AS
         TEMPERATURE IN CENTIGRADE
AFB    - AIR FORCE BASE
         LUKE AFB IS LUKE AIR FORCE BASE
         DAVIS-MONTHAN IS DAVIS-MONTHAN AIR FORCE BASE
NAS    - NAVAL AIR STATION
         EL CENTRO NAS IS EL CENTRO NAVAL AIR STATION
N/A    - NOT AVAILABLE



USA.gov is the U.S. government's official web portal to all federal, state and local government web resources and services.